#timestamp,LO_Frequency,Hit,StdDev 
1578553215.5,286047000.3,N
1578553235.3,286047002.6,N
1578553255.1,286047004.0,N
1578553275.9,286047001.6,N
1578553295.7,286047000.9,N
1578553315.6,286046998.9,N
1578553335.4,286046998.8,N
1578553355.2,286046998.1,N
1578553375.1,286047000.2,N
1578553376.0,286047000.2,N
1578553395.8,286047000.4,N
1578553415.6,286046998.1,N
1578553435.5,286046999.7,N
1578553455.3,286047000.1,N
1578553475.2,286047001.6,N
1578553495.9,286047000.3,N
1578553515.7,286047002.7,N
1578553535.6,286047002.1,N
1578553555.4,286046999.9,N
1578553575.3,286046999.9,N
1578553595.1,286047001.0,N
1578553596.0,286047001.0,N
1578553615.8,286046998.1,N
1578553635.7,286047001.0,N
1578553655.5,286047000.2,N
1578553675.3,286047000.6,N
1578553695.2,286047000.8,N
1578553715.0,286047000.5,N
1578553715.9,286047000.5,N
1578553735.8,286047003.7,N
1578553755.6,286047003.3,N
1578553775.4,286047001.5,N
1578553795.3,286047001.6,N
1578553815.1,286047002.4,N
1578553835.8,286046999.9,N
1578553855.7,286047000.0,N
1578553875.5,286046999.7,N
1578553895.4,286047002.5,N
1578553915.2,286046999.7,N
1578553935.0,286047002.2,N
1578553935.9,286047002.2,N
1578553955.8,286047002.2,N
1578553975.6,286047001.8,N
1578553995.4,286047000.4,N
1578554015.3,286047001.2,N
1578554035.1,286047001.0,N
1578554055.9,286046998.3,N
1578554075.7,286046999.9,N
1578554095.5,286047001.0,N
1578554115.4,286046999.9,N
1578554135.2,286046998.5,N
1578554155.0,286047001.2,N
1578554155.9,286047001.2,N
1578554175.8,286047000.3,N
1578554195.6,286047000.6,N
1578554215.5,286046998.2,N
1578554235.3,286046999.6,N
1578554255.1,286046998.6,N
1578554275.9,286046998.3,N
1578554295.7,286047001.2,N
1578554315.5,286047001.1,N
1578554335.4,286046999.6,N
1578554355.2,286046999.4,N
1578554375.1,286046998.4,N
1578554376.0,286046998.4,N
1578554395.8,286046999.3,N
1578554415.6,286046999.5,N
1578554435.5,286046999.5,N
1578554455.3,286046997.9,N
1578554475.1,286046998.1,N
1578554495.9,286046998.8,N
1578554515.7,286046998.8,N
1578554535.6,286047002.4,N
1578554555.4,286047002.0,N
1578554575.2,286047000.1,N
1578554595.1,286047000.1,N
1578554596.0,286047000.1,N
1578554615.8,286047001.6,N
1578554635.7,286047002.5,N
1578554655.5,286047002.2,N
1578554675.3,286047002.7,N
1578554695.2,286047002.5,N
1578554715.0,286047002.7,N
1578554715.9,286047002.7,N
1578554735.8,286047002.7,N
1578554755.6,286047002.6,N
1578554775.4,286047002.8,N
1578554795.3,286047001.0,N
1578554815.1,286047001.1,N
1578554835.8,286046999.0,N
1578554855.7,286046999.2,N
1578554875.5,286046999.3,N
1578554895.4,286046999.6,N
1578554915.2,286047000.6,N
1578554935.0,286047000.2,N
1578554935.9,286047000.2,N
1578554955.8,286047000.8,N
1578554975.6,286047000.8,N
1578554995.4,286047000.0,N
1578555015.3,286047000.8,N
1578555035.1,286047000.5,N
1578555055.9,286047001.2,N
1578555075.7,286047001.2,N
1578555095.5,286047000.6,N
1578555115.4,286046998.1,N
1578555135.2,286047000.8,N
1578555155.0,286047001.1,N
1578555155.9,286047001.1,N
1578555175.8,286046999.0,N
1578555195.6,286046998.2,N
1578555215.4,286046998.8,N
1578555235.3,286047002.7,N
1578555255.1,286047001.5,N
1578555275.9,286047001.6,N
1578555295.7,286047002.7,N
1578555315.5,286046999.8,N
1578555335.4,286047002.5,N
1578555355.2,286047002.7,N
1578555375.1,286047001.2,N
1578555376.0,286047001.2,N
1578555395.8,286047001.0,N
1578555415.6,286047002.2,N
1578555435.5,286047000.3,N
1578555455.3,286046999.4,N
1578555475.1,286046999.1,N
1578555495.9,286046999.3,N
1578555515.7,286046999.0,N
1578555535.6,286046999.2,N
1578555555.4,286046998.7,N
1578555575.2,286046999.1,N
1578555595.1,286046999.1,N
1578555596.0,286046999.1,N
1578555615.8,286046996.7,N
1578555635.7,286046997.0,N
1578555655.5,286046997.7,N
1578555675.3,286046999.3,N
1578555695.2,286046999.0,N
1578555715.9,286046996.6,N
1578555735.7,286046996.7,N
1578555755.6,286046997.3,N
1578555775.4,286046995.8,N
1578555795.2,286046994.9,N
1578555815.1,286046995.0,N
1578555816.0,286046995.0,N
1578555835.8,286046997.7,N
1578555855.7,286046995.1,N
1578555875.5,286046995.1,N
1578555895.3,286046997.3,N
1578555915.2,286046997.8,N
1578555935.0,286046997.5,N
1578555935.9,286046997.5,N
1578555955.8,286046997.8,N
1578555975.6,286046997.2,N
1578555995.4,286046999.1,N
1578556015.3,286046996.5,N
1578556035.1,286046997.1,N
1578556055.8,286046996.5,N
1578556075.7,286046996.6,N
1578556095.5,286046996.8,N
1578556115.4,286046997.3,N
1578556135.2,286046995.0,Y
1578556155.0,286046998.1,P
1578556155.9,286046998.1,P
1578556175.8,286047001.2,N
1578556195.6,286047000.8,N
1578556215.5,286047000.1,N
1578556235.3,286046998.6,N
1578556255.1,286047000.7,N
1578556275.9,286047000.4,N
1578556295.7,286047002.3,N
1578556315.5,286046999.8,N
1578556335.4,286047002.0,N
1578556355.2,286047001.8,N
1578556375.1,286047006.0,Y
1578556376.0,286047006.0,P
1578556395.8,286047004.1,N
1578556415.6,286047002.2,N
1578556435.5,286047002.3,N
1578556455.3,286047002.2,N
1578556475.1,286047002.0,N
1578556495.9,286047000.0,N
1578556515.7,286047000.2,N
1578556535.6,286047002.7,N
1578556555.4,286046999.8,N
1578556575.2,286047002.4,N
1578556595.1,286047000.6,N
1578556596.0,286047000.6,N
1578556615.8,286047000.2,N
1578556635.6,286046998.2,N
1578556655.5,286046996.5,N
1578556675.3,286046999.6,N
1578556695.2,286046996.7,N
1578556715.9,286046997.2,N
1578556735.7,286046996.7,N
1578556755.6,286046997.1,N
1578556775.4,286046996.7,N
1578556795.2,286046996.7,N
